Regional Weather Roundup
Issued by NWS

Home | Current Version | Previous Version | Graphics & Text | Print | Product List | Glossary On
Versions: 1 2 3 4 5 6 7 8 9 10 11 12 13 14 15 16 17 18 19 20 21 22 23 24 25 26 27 28 29 30 31 32 33 34 35 36 37 38 39 40 41 42 43 44 45 46 47 48 49 50
523
ASUS43 KMPX 280101
RWRMN
WEATHER ROUNDUP FOR MINNESOTA
NATIONAL WEATHER SERVICE TWIN CITIES/CHANHASSEN MN
800 PM CDT THU APR 27 2017


NOTE: "FAIR" INDICATES FEW OR NO CLOUDS BELOW 12,000 FEET WITH NO
SIGNIFICANT WEATHER AND/OR OBSTRUCTIONS TO VISIBILITY. N/A MEANS
CURRENT SKY AND/OR WEATHER CONDITIONS ARE NOT AVAILABLE.

MNZ060>063-068>070-280200-
   Twin Cities Metro

CITY           SKY/WX    TMP DP  RH WIND       PRES   REMARKS
TWIN CITIES    CLOUDY    34  23  64 NW9       29.71R WCI  27
ST PAUL        CLOUDY    34  24  67 NW13      29.72R WCI  25
CRYSTAL        CLOUDY    33  22  63 NW8       29.70R WCI  26
BLAINE         CLOUDY    34  25  69 NW12      29.70R WCI  25
LAKEVILLE      CLOUDY    32  25  74 W14G22    29.71R WCI  22
EDEN PRAIRIE   CLOUDY    35  24  64 NW12G18   29.70R WCI  27
SOUTH ST PAUL  CLOUDY    34  24  67 W6        29.71R WCI  29
LAKE ELMO      CLOUDY    32  27  80 W12       29.71R WCI  23
$$
MNZ001>005-007-008-013>017-022>024-027-028-280200-
   Northwest Minnesota

CITY           SKY/WX    TMP DP  RH WIND       PRES   REMARKS
BEMIDJI        CLOUDY    29  22  73 NW10      29.64R WCI  20
HALLOCK        CLOUDY    37  30  75 NE18      29.73R
ROSEAU         CLOUDY    32  27  80 N15G25    29.69R WCI  22
WARROAD        LGT SNOW  30  27  86 N12G18    29.68R WCI  21
THIEF RVR FALL CLOUDY    32  26  78 NW8       29.71R WCI  25
CROOKSTON      CLOUDY    34  27  75 CALM      29.72R
FOSSTON        CLOUDY    28  23  80 NW7       29.69R WCI  21
DETROIT LAKES  CLOUDY    32  28  86 NW7       29.70R WCI  26
MOORHEAD       CLOUDY    37  28  70 NE3       29.72R
PARK RAPIDS    CLOUDY    31  21  66 NW13      29.65R WCI  21
MAHNOMEN       CLOUDY    31  26  83 CALM      29.69R
$$
MNZ006-009>011-018-025>026-280200-
   North Central Minnesota

CITY           SKY/WX    TMP DP  RH WIND       PRES   REMARKS
BAUDETTE       CLOUDY    28  23  81 N9        29.63R WCI  19
FLAG ISLAND    FLURRIES  28  23  80 N21       29.66R WCI  15
INTL FALLS     CLOUDY    28  19  69 NW9       29.59R WCI  19
WASKISH        MIX PCPN  27  25  93 N5        29.64R WCI  21
BIG FORK       CLOUDY    28  19  69 W5        29.61R WCI  23
LONGVILLE      MIX PCPN  28  25  86 W6        29.64R WCI  22
GRAND RAPIDS   CLOUDY    27  21  78 NW15      29.63R WCI  15
CRANE LAKE     CLOUDY    27  21  80 NW3       29.59R
ORR            CLOUDY    27  19  74 NW8       29.56R WCI  18
COOK           CLOUDY    27  21  80 W9        29.58R WCI  17
WALKER         CLOUDY    28  22  77 W7        29.64R WCI  21
$$
MNZ012-019>021-037-280200-
   Northeast Minnesota

CITY           SKY/WX    TMP DP  RH WIND       PRES   REMARKS
DULUTH         CLOUDY    29  20  69 W13       29.58R WCI  19
ELY            CLOUDY    27  19  74 W10G16    29.54R WCI  17
HIBBING        CLOUDY    26  18  71 NW12      29.59R WCI  16
EVELETH        CLOUDY    28  18  67 W9        29.59R WCI  19
DULUTH HARBOR  CLOUDY    34  25  69 W18       29.63R WCI  23
TWO HARBORS    CLOUDY    30  23  74 W7        29.57R WCI  23
SILVER BAY     CLOUDY    28  23  80 W5        29.55R WCI  23
GRAND MARAIS     N/A     28  23  81 W3        29.56R
G MARAIS ARPRT CLOUDY    21  16  79 CALM      29.49R
$$
MNZ029>031-032-039>041-046>048-054>057-064-280200-
   West Central Minnesota

CITY           SKY/WX    TMP DP  RH WIND       PRES   REMARKS
FERGUS FALLS   CLOUDY    36  27  69 N6        29.71R
WHEATON        CLOUDY    37  27  65 CALM      29.75S
MORRIS         CLOUDY    36  28  75 NW7       29.73R
ALEXANDRIA     CLOUDY    33  24  69 NW12      29.70R WCI  24
ELBOW LAKE     CLOUDY    35  28  74 W7        29.72R WCI  29
WADENA         CLOUDY    30  27  86 NW8       29.67R WCI  23
GLENWOOD       CLOUDY    32  25  74 NW10      29.71S WCI  24
APPLETON       CLOUDY    37  28  70 N7        29.75R
BENSON         CLOUDY    37  25  60 N12       29.75R
ORTONVILLE     CLOUDY    37  27  65 N5        29.74R
MADISON        CLOUDY    39  30  70 N6        29.75R
WILLMAR        CLOUDY    36  27  69 NW17G23   29.74R
$$
MNZ033>034-036-042>043-049>051-058-059-280200-
   Central Minnesota

CITY           SKY/WX    TMP DP  RH WIND       PRES   REMARKS
ST CLOUD       CLOUDY    33  24  69 NW14      29.69R WCI  23
SAUK CENTRE    CLOUDY    32  25  76 W8        29.70R WCI  25
PAYNESVILLE    CLOUDY    33  26  75 NW12G18   29.72R WCI  24
AITKIN         CLOUDY    30  21  69 NW5       29.63R WCI  25
PINE RIVER     CLOUDY    30  23  74 NW5       29.69R WCI  25
BRAINERD       CLOUDY    31  22  69 W7        29.65S WCI  24
STAPLES        CLOUDY    28  25  86 W10       29.66S WCI  19
LONG PRAIRIE   CLOUDY    32  25  74 W6        29.69R WCI  26
LITTLE FALLS   CLOUDY    32  23  69 W8        29.69R WCI  25
LITCHFIELD     CLOUDY    36  27  69 NW9       29.72R
BUFFALO        CLOUDY    33  24  67 W7        29.72R WCI  27
MAPLE LAKE     CLOUDY    34  26  73 NW8       29.72R WCI  27
HUTCHINSON     CLOUDY    35  28  74 NW13      29.73R WCI  26
$$
MNZ037-044-045-052-053-280200-
   East Central Minnesota

CITY           SKY/WX    TMP DP  RH WIND       PRES   REMARKS
PRINCETON      CLOUDY    34  25  69 W10       29.69R WCI  26
MORA           CLOUDY    32  23  69 W8        29.68R WCI  25
CAMBRIDGE      CLOUDY    34  23  64 W5        29.67R WCI  30
RUSH CITY      CLOUDY    31  24  73 W9        29.68R WCI  23
MOOSE LAKE     CLOUDY    32  21  64 W8        29.62R WCI  25
HINCKLEY       CLOUDY    32  27  80 W7        29.66R WCI  26
CLOQUET        CLOUDY    28  19  69 W12       29.60R WCI  18
MCGREGOR       CLOUDY    30  23  74 NW6       29.64R WCI  24
$$
MNZ071>073-080-081-089-090-097-098-280200-
   Southwest Minnesota

CITY           SKY/WX    TMP DP  RH WIND       PRES   REMARKS
MONTEVIDEO     CLOUDY    36  28  75 N9        29.76R
GRANITE FALLS  CLOUDY    38  30  72 NW12      29.77R
CANBY          CLOUDY    40  30  67 N9        29.76R
MARSHALL       CLEAR     37  28  70 N14       29.76R
REDWOOD FALLS  CLOUDY    36  26  67 NW8       29.75R
OLIVIA         CLOUDY    34  28  80 NW10      29.74R WCI  26
PIPESTONE      CLEAR     43  27  52 NE8       29.72R
WINDOM         CLEAR     36  28  75 N10       29.75R
WORTHINGTON    PTCLDY    39  31  72 N8        29.74R
JACKSON        PTCLDY    36  30  80 N5        29.75R
TRACY          PTCLDY    38  30  74 N13       29.76R
SLAYTON        CLEAR     38  30  72 N10       29.73R
$$
MNZ065>067-074>077-082>085-091>093-280200-
   South Central Minnesota

CITY           SKY/WX    TMP DP  RH WIND       PRES   REMARKS
MANKATO        CLOUDY    34  26  72 W15       29.75R WCI  24
NEW ULM        CLOUDY    34  25  69 NW17      29.75R WCI  23
ST JAMES       CLOUDY    36  28  75 NW15      29.77R
FAIRMONT       CLOUDY    37  28  70 NW13      29.76R
GLENCOE        CLOUDY    35  30  82 W10       29.72R WCI  27
FARIBAULT      CLOUDY    34  27  75 W10G20    29.73R WCI  26
OWATONNA       CLOUDY    34  27  75 W15       29.73R WCI  24
WASECA         CLOUDY    32  28  86 NW16G24   29.75R WCI  21
ALBERT LEA     CLOUDY    34  27  75 W10G16    29.74R WCI  26
$$
MNZ078>079-086>088-094>096-280200-
   Southeast Minnesota

CITY           SKY/WX    TMP DP  RH WIND       PRES   REMARKS
ROCHESTER      CLOUDY    33  27  78 W13       29.72R WCI  24
RED WING       CLOUDY    36  23  60 NW6       29.70R
STANTON        CLOUDY    35  28  76 W10       29.71R WCI  27
DODGE CENTER   CLOUDY    34  27  75 W13G18    29.71R WCI  25
WINONA         CLOUDY    36  30  80 W8        29.72R
AUSTIN         CLOUDY    34  27  75 W10G17    29.73R WCI  26
PRESTON        CLOUDY    33  27  79 W16       29.72R WCI  23
$$
ABBREVIATIONS USED IN REMARKS
   TC - TEMPERATURES IN CELSIUS
  WCI - WIND CHILL INDEX
   HX - HEAT INDEX
  VSB - VISIBILITY
$$




USA.gov is the U.S. government's official web portal to all federal, state and local government web resources and services.